Location: Wellington
(41.3000°S, 174.7830°E)
Time: 18:43:16
(UTC+13:00)

Cosmos 1455 - Pass Details

Date: 24 January 2019
Orbit: 501 x 523 km, 82.5° (Epoch: 20 February)

Event Time Altitude Azimuth Distance (km) Brightness Sun altitude
Rises 21:17:53 0° 331° (NNW) 2,652 5.8 -5.5°
Reaches altitude 10° 21:20:11 10° 320° (NW) 1,774 5.0 -5.9°
Maximum altitude 21:23:40 31° 256° (WSW) 963 4.5 -6.4°
Drops below altitude 10° 21:27:12 10° 193° (SSW) 1,799 5.7 -7.0°
Sets 21:29:34 0° 182° (S) 2,697 6.4 -7.4°
